Вернуться в каталог

FENGYUN 1C DEB

АктивенSSO
NORAD 30217·DEBRIS·🇨🇳 China

Запущен May 10, 1999 с Taiyuan Satellite Launch Center

Loading…

Ближайшие Пролёты (ближайшие 24 часа)

TLE

СвежийSource: Space-Track

Эпоха: Sep 14, 2026, 15:52 UTC

1 30217U 99025WA  26257.66161079  .00000499  00000-0  20824-3 0  9997
2 30217  98.4602 236.2236 0139447  12.5374 347.9217 14.25195640 20011

Отслеживайте FENGYUN 1C DEB в реальном времени с AllMySat

Download on the App Store